Regional Weather Roundup
Issued by NWS Cleveland, OH

Home | Current Version | Previous Version | Graphics & Text | Print | Product List | Glossary On
Versions: 1 2 3 4 5 6 7 8 9 10 11 12 13 14 15 16 17 18 19 20 21 22 23 24 25 26 27 28 29 30 31 32 33 34 35 36 37 38 39 40 41 42 43 44 45 46 47 48 49 50
682
ASUS41 KCLE 241000
RWRCLE
OHIO REGIONAL WEATHER ROUNDUP
NATIONAL WEATHER SERVICE WILMINGTON, OH
500 AM EST SAT FEB 24 2018

NOTE: "FAIR" INDICATES FEW OR NO CLOUDS BELOW 12,000 FEET WITH NO
SIGNIFICANT WEATHER AND/OR OBSTRUCTIONS TO VISIBILITY.

OHZ001>008-015>018-024>027-034-035-043-044-241100-
   NORTHWEST OHIO

CITY           SKY/WX    TMP DP  RH WIND       PRES   REMARKS
DEFIANCE       CLOUDY    38  34  85 N8        30.22F
FINDLAY        LGT RAIN  41  36  82 N12       30.20F
TOLEDO EXPRESS CLOUDY    38  35  89 NE8       30.22F
TOLEDO EXEC    CLOUDY    40  35  83 VRB5      30.24S
LIMA           RAIN      40  40 100 N9        30.19S FOG
$$

OHZ009>014-019>023-028>033-038-089-241100-
   NORTHEAST OHIO

CITY           SKY/WX    TMP DP  RH WIND       PRES   REMARKS
CLE-HOPKINS    CLOUDY    40  37  89 N10       30.23F
CLE-LAKEFRONT  CLOUDY    37  34  89 N9        30.21F
CUY CO. ARPT   NOT AVBL
LORAIN-ELYRIA  CLOUDY    39  32  76 NE9G17    30.22F
ASHTABULA      CLOUDY    39  36  89 N7        30.22S
AKRON-CANTON   CLOUDY    44  40  85 N12       30.19R FOG
WOOSTER        NOT AVBL
MANSFIELD      LGT RAIN  42  41  96 N10       30.17F FOG
YOUNGSTOWN     CLOUDY    44  40  85 N7        30.19S
$$

OHZ042-051>053-060>062-070>072-077>081-241100-
  SOUTHWEST OHIO

CITY           SKY/WX    TMP DP  RH WIND       PRES   REMARKS
CINC-COVINGTON CLOUDY    50  49  96 N10       30.13S FOG
CINC-LUNKEN    CLOUDY    50  49  96 N7        30.14F
HAMILTON       CLOUDY    49  47  93 NE6       30.16F
DAYTON         NOT AVBL
WRIGHT-PAT AFB LGT RAIN  46  43  91 NW5       30.18R
DAYTON GENERAL CLOUDY    48  44  86 NE9       30.14F
WILMINGTON     LGT RAIN  48  48 100 NE8       30.14F FOG
$$

OHZ036-037-039>041-045>050-054>059-063>069-073>076-082>088-241100-
  CENTRAL AND SOUTHEAST OHIO

CITY           SKY/WX    TMP DP  RH WIND       PRES   REMARKS
COLUMBUS       LGT RAIN  48  46  93 N3        30.17R
OSU AIRPORT    LGT RAIN  46  46 100 N7        30.17F
BOLTON FIELD   CLOUDY    46  45  96 N6        30.16F
RICKENBACK AFB NOT AVBL
NEWARK         LGT RAIN  49  46  90 N3        30.15S
MARION         LGT RAIN  44  42  93 N13       30.17R FOG
LANCASTER      LGT RAIN  49  48  97 E3        30.15F
ZANESVILLE     LGT RAIN  51  47  86 N3        30.14F
NEW PHILLY     CLOUDY    49  44  83 N9        30.16F
$$




USA.gov is the U.S. government's official web portal to all federal, state and local government web resources and services.